Regional Weather Roundup
Issued by NWS

Home | Current Version | Previous Version | Text Only | Print | Product List | Glossary Off
Versions: 1 2 3 4 5 6 7 8 9 10 11 12 13 14 15 16 17 18 19 20 21 22 23 24 25 26 27 28 29 30 31 32 33 34 35 36 37 38 39 40 41 42 43 44 45 46 47 48 49 50

000
ASUS43 KBIS 102110
RWRND

NORTH DAKOTA REGIONAL WEATHER ROUNDUP
NATIONAL WEATHER SERVICE BISMARCK ND
400 PM CDT THU JUL 10 2014

NOTE: "FAIR" INDICATES FEW OR NO CLOUDS BELOW 12,000 FEET WITH NO
SIGNIFICANT WEATHER AND/OR OBSTRUCTIONS TO VISIBILITY.


NDZ001>003-009>011-017-102200-
NORTHWEST NORTH DAKOTA

CITY           SKY/WX    TMP DP  RH WIND       PRES   REMARKS
WILLISTON      SUNNY     90  59  35 S12G20    29.72F
MINOT          MOSUNNY   79  63  57 S14       29.77F
MINOT AFB      MOSUNNY   78  66  65 S14       29.76F
$$

NDZ018>021-031>035-040>046-102200-
SOUTHWEST NORTH DAKOTA

CITY           SKY/WX    TMP DP  RH WIND       PRES   REMARKS
BISMARCK       CLOUDY    77  64  64 SE5       29.82F
DICKINSON      SUNNY     81  64  56 S13       29.80F
GARRISON         N/A     77  66  68 S13       29.80S
HETTINGER ARPT SUNNY     79  64  60 S6        29.84F
$$

NDZ004>008-012>016-024-026-027-054-102200-
NORTHEAST NORTH DAKOTA

CITY           SKY/WX    TMP DP  RH WIND       PRES   REMARKS
GRAND FORKS    CLOUDY    80  59  48 SE16      29.85F
GRND FRKS AFB  CLOUDY    79  60  52 SE13      29.86F
DEVILS LAKE    CLOUDY    77  61  57 S14G21    29.82F
$$

NDZ022-023-025-028>030-036>039-047>053-102200-
SOUTHEAST NORTH DAKOTA

CITY           SKY/WX    TMP DP  RH WIND       PRES   REMARKS
FARGO          PTSUNNY   83  58  42 SE17      29.86F
JAMESTOWN      CLOUDY    75  62  64 S14       29.86S
$$



USA.gov is the U.S. government's official web portal to all federal, state and local government web resources and services.